FW7970 Weather Reports


time (UTC)temp
F
wind
direction
speed
knots
gust
knots
rain 1hr
in
rain 24hr
in
rain mn
in
humidity
%
barometer
mb
20260505041439 68 351 0.9 0.9 0.00 0.00 0.00 65 1006.3
20260505040937 68 344 0.9 0.9 0.00 0.00 0.00 65 1006.1
20260505040434 68 2 0.9 1.7 0.00 0.00 0.00 64 1006.2
20260505035931 68 349 0.0 0.9 0.00 0.00 0.00 64 1006.3
20260505035427 68 336 0.9 0.9 0.00 0.00 0.00 64 1006.2
20260505034924 68 352 0.9 1.7 0.00 0.00 0.00 64 1006.3
20260505034420 69 339 0.9 0.9 0.00 0.00 0.00 63 1006.3
20260505033918 68 351 0.0 0.0 0.00 0.00 0.00 64 1006.3
20260505033414 69 341 0.9 0.9 0.00 0.00 0.00 63 1006.2
20260505032913 69 349 0.9 0.9 0.00 0.00 0.00 63 1006.4
20260505032409 69 353 0.0 0.9 0.00 0.00 0.00 62 1006.5
20260505031906 69 354 0.0 0.0 0.00 0.00 0.00 61 1006.1
20260505031403 69 352 0.9 0.9 0.00 0.00 0.00 62 1006.2
20260505030900 69 357 0.0 0.0 0.00 0.00 0.00 62 1006.0
20260505030355 70 358 0.9 0.9 0.00 0.00 0.00 61 1006.0
20260505025851 70 330 0.0 0.0 0.00 0.00 0.00 61 1006.0
20260505025349 70 332 0.0 0.9 0.00 0.00 0.00 61 1005.9
20260505024848 70 290 0.9 1.7 0.00 0.00 0.00 59 1006.0
20260505024345 71 328 1.7 2.6 0.00 0.00 0.00 59 1005.8
20260505023841 71 330 0.9 0.9 0.00 0.00 0.00 59 1005.7
20260505023338 71 254 1.7 2.6 0.00 0.00 0.00 59 1005.7
20260505022836 71 343 0.9 1.7 0.00 0.00 0.00 58 1005.6
20260505022332 71 279 0.9 1.7 0.00 0.00 0.00 59 1005.2
20260505021830 71 10 2.6 4.3 0.00 0.00 0.00 59 1005.2
20260505021326 71 329 0.9 0.9 0.00 0.00 0.00 59 1005.5
20260505020822 71 330 1.7 1.7 0.00 0.00 0.00 58 1005.2
20260505020318 71 338 0.9 0.9 0.00 0.00 0.00 58 1005.3
20260505015815 72 326 1.7 2.6 0.00 0.00 0.00 58 1004.9
20260505015313 72 349 0.9 1.7 0.00 0.00 0.00 56 1004.9
20260505014810 72 307 1.7 1.7 0.00 0.00 0.00 56 1005.0
20260505014307 72 4 1.7 2.6 0.00 0.00 0.00 57 1004.6
20260505013803 72 311 1.7 2.6 0.00 0.00 0.00 56 1004.6
20260505013300 73 259 0.9 1.7 0.00 0.00 0.00 56 1004.6
20260505012758 73 251 0.9 1.7 0.00 0.00 0.00 56 1004.7
20260505012255 73 217 1.7 2.6 0.00 0.00 0.00 55 1004.4
20260505011751 73 320 0.9 0.9 0.00 0.00 0.00 57 1004.5
20260505011248 73 265 0.9 1.7 0.00 0.00 0.00 56 1004.4
20260505010744 73 314 2.6 4.3 0.00 0.00 0.00 55 1004.3
20260505010235 74 301 2.6 5.2 0.00 0.00 0.00 55 1004.1
20260505005732 74 274 2.6 2.6 0.00 0.00 0.00 55 1003.8
20260505005229 74 100 4.3 7.0 0.00 0.00 0.00 55 1003.9
20260505004726 74 336 2.6 2.6 0.00 0.00 0.00 57 1003.9
20260505004222 74 321 0.9 1.7 0.00 0.00 0.00 57 1004.1
20260505003719 74 338 0.9 0.9 0.00 0.00 0.00 56 1003.8
20260505003217 74 331 1.7 1.7 0.00 0.00 0.00 56 1003.9
20260505002713 74 330 0.9 0.9 0.00 0.00 0.00 55 1003.9
20260505002211 75 329 0.9 0.9 0.00 0.00 0.00 55 1003.9
20260505001708 75 355 0.0 0.9 0.00 0.00 0.00 55 1004.1
20260505001206 75 242 0.9 1.7 0.00 0.00 0.00 55 1004.0
20260505000703 75 347 1.7 2.6 0.00 0.00 0.00 54 1004.2
20260505000200 75 349 0.0 0.9 0.00 0.00 0.00 55 1004.0
20260504235656 75 283 0.9 0.9 0.00 0.00 0.00 55 1004.0
20260504235153 75 314 1.7 2.6 0.00 0.00 0.00 55 1004.2
20260504234650 75 289 2.6 2.6 0.00 0.00 0.00 54 1004.3
20260504234147 76 321 1.7 1.7 0.00 0.00 0.00 54 1004.1
20260504233643 76 11 0.0 0.9 0.00 0.00 0.00 54 1004.1
20260504233139 76 274 3.5 4.3 0.00 0.00 0.00 52 1004.3
20260504232637 77 21 0.0 0.0 0.00 0.00 0.00 53 1004.1
20260504232134 77 312 0.9 1.7 0.00 0.00 0.00 54 1004.0
20260504231631 77 241 4.3 6.1 0.00 0.00 0.00 52 1004.2
20260504231127 77 16 2.6 2.6 0.00 0.00 0.00 51 1004.4
20260504230623 77 9 0.9 1.7 0.00 0.00 0.00 51 1004.3
20260504230122 77 279 2.6 2.6 0.00 0.00 0.00 50 1004.5
20260504225620 77 267 2.6 2.6 0.00 0.00 0.00 50 1004.3
20260504225115 78 348 0.9 0.9 0.00 0.00 0.00 51 1004.3
20260504224612 79 269 0.9 1.7 0.00 0.00 0.00 51 1004.3
20260504224109 80 246 0.9 0.9 0.00 0.00 0.00 49 1004.4
20260504223606 79 224 1.7 2.6 0.00 0.00 0.00 49 1004.3
20260504223102 79 282 4.3 7.0 0.00 0.00 0.00 49 1004.4
20260504222559 79 259 1.7 2.6 0.00 0.00 0.00 50 1004.6
20260504222056 78 336 2.6 2.6 0.00 0.00 0.00 51 1004.2
20260504221554 78 336 2.6 4.3 0.00 0.00 0.00 49 1004.3
20260504221050 80 220 5.2 7.0 0.00 0.00 0.00 47 1004.4
20260504220547 80 281 1.7 2.6 0.00 0.00 0.00 46 1004.3
20260504220044 81 336 1.7 2.6 0.00 0.00 0.00 45 1004.3
20260504215540 80 193 2.6 2.6 0.00 0.00 0.00 45 1004.4
20260504215038 80 263 4.3 6.1 0.00 0.00 0.00 46 1004.5
20260504214533 81 330 1.7 1.7 0.00 0.00 0.00 46 1004.5
20260504214030 82 270 2.6 4.3 0.00 0.00 0.00 47 1004.5
20260504213527 81 268 1.7 1.7 0.00 0.00 0.00 44 1004.5
20260504213024 82 234 2.6 2.6 0.00 0.00 0.00 45 1004.3
20260504212520 81 242 3.5 5.2 0.00 0.00 0.00 44 1004.5
20260504212017 81 344 3.5 4.3 0.00 0.00 0.00 44 1004.6
20260504211514 82 266 2.6 2.6 0.00 0.00 0.00 45 1004.6
20260504211011 82 52 0.9 0.9 0.00 0.00 0.00 46 1004.4
20260504210508 82 263 0.9 1.7 0.00 0.00 0.00 47 1004.7
20260504210005 81 291 3.5 5.2 0.00 0.00 0.00 45 1004.6
20260504205503 80 343 5.2 9.6 0.00 0.00 0.00 45 1004.8
20260504205000 80 264 1.7 2.6 0.00 0.00 0.00 48 1005.0
20260504204458 79 280 1.7 1.7 0.00 0.00 0.00 49 1004.7
20260504203957 80 285 3.5 4.3 0.00 0.00 0.00 47 1004.7
20260504203455 79 318 6.1 9.6 0.00 0.00 0.00 48 1004.8
20260504202950 80 261 1.7 1.7 0.00 0.00 0.00 48 1004.9
20260504202447 79 316 1.7 2.6 0.00 0.00 0.00 50 1005.0
20260504201944 79 237 2.6 2.6 0.00 0.00 0.00 48 1004.8
20260504201441 78 329 1.7 1.7 0.00 0.00 0.00 49 1004.9
20260504200939 79 209 5.2 11.3 0.00 0.00 0.00 48 1004.7
20260504200435 79 264 1.7 1.7 0.00 0.00 0.00 49 1005.0
20260504195932 79 251 2.6 2.6 0.00 0.00 0.00 48 1005.0
20260504195428 77 280 3.5 5.2 0.00 0.00 0.00 49 1005.2
20260504194924 77 252 3.5 6.1 0.00 0.00 0.00 50 1005.0
20260504194421 77 323 1.7 2.6 0.00 0.00 0.00 51 1005.6
20260504193917 78 297 1.7 2.6 0.00 0.00 0.00 49 1005.3
20260504193414 79 320 2.6 4.3 0.00 0.00 0.00 48 1005.3
20260504192913 79 284 2.6 5.2 0.00 0.00 0.00 48 1005.5
20260504192410 80 349 2.6 2.6 0.00 0.00 0.00 45 1005.1
20260504191909 80 338 2.6 2.6 0.00 0.00 0.00 48 1005.5
20260504191406 79 321 1.7 2.6 0.00 0.00 0.00 48 1005.3
20260504190901 78 318 2.6 4.3 0.00 0.00 0.00 50 1005.5
20260504190357 77 289 1.7 1.7 0.00 0.00 0.00 51 1005.3
20260504185854 75 322 2.6 4.3 0.00 0.00 0.00 52 1005.3
20260504185351 76 338 1.7 1.7 0.00 0.00 0.00 53 1005.6
20260504184847 76 234 4.3 7.0 0.00 0.00 0.00 52 1005.9
20260504184343 75 249 3.5 5.2 0.00 0.00 0.00 52 1005.8
20260504183839 75 325 0.9 0.9 0.00 0.00 0.00 54 1006.1
20260504183337 75 266 1.7 2.6 0.00 0.00 0.00 52 1006.5
20260504182834 74 1 0.9 1.7 0.00 0.00 0.00 54 1006.2
20260504182331 74 299 7.0 11.3 0.00 0.00 0.00 51 1006.3
20260504181828 74 3 2.6 4.3 0.00 0.00 0.00 52 1006.2
20260504181326 75 340 3.5 4.3 0.00 0.00 0.00 50 1006.5
20260504180824 75 277 0.9 1.7 0.00 0.00 0.00 52 1006.5
20260504180322 76 257 2.6 4.3 0.00 0.00 0.00 49 1006.3
20260504175820 77 269 1.7 1.7 0.00 0.00 0.00 51 1006.3
20260504175317 77 241 2.6 2.6 0.00 0.00 0.00 48 1006.3
20260504174815 78 214 6.1 7.0 0.00 0.00 0.00 46 1006.1
20260504174312 80 342 1.7 1.7 0.00 0.00 0.00 47 1006.5
20260504173809 80 250 3.5 4.3 0.00 0.00 0.00 47 1006.4
20260504173306 79 309 2.6 2.6 0.00 0.00 0.00 45 1006.1
20260504172803 80 293 1.7 2.6 0.00 0.00 0.00 45 1006.4
20260504172259 79 348 4.3 6.1 0.00 0.00 0.00 47 1006.0
20260504171755 79 321 1.7 2.6 0.00 0.00 0.00 48 1006.5
20260504171252 79 246 1.7 2.6 0.00 0.00 0.00 45 1006.2
20260504170749 80 253 1.7 1.7 0.00 0.00 0.00 46 1006.6
20260504170246 79 254 2.6 4.3 0.00 0.00 0.00 46 1006.4
20260504160205 76 266 6.1 8.7 0.00 0.00 0.00 46 1006.3
20260504151133 73 333 2.6 2.6 0.00 0.00 0.00 49 1006.6
20260504150630 73 314 3.5 6.1 0.00 0.00 0.00 49 1006.8
20260504150127 72 280 2.6 2.6 0.00 0.00 0.00 50 1006.7
20260504141055 69 278 1.7 4.3 0.00 0.00 0.00 54 1007.4
20260504140552 69 321 5.2 7.8 0.00 0.00 0.00 53 1007.5
20260504130516 65 232 1.7 2.6 0.00 0.00 0.00 58 1007.7
20260504110404 63 316 2.6 2.6 0.00 0.00 0.00 57 1008.0
20260504100321 64 289 1.7 2.6 0.00 0.00 0.00 55 1008.1
20260504081715 64 323 2.6 4.3 0.00 0.00 0.00 58 1008.7
20260504081211 65 297 0.9 1.7 0.00 0.00 0.00 58 1008.7
20260504080707 65 272 1.7 2.6 0.00 0.00 0.00 58 1008.8
20260504080204 65 269 0.9 1.7 0.00 0.00 0.00 58 1008.8
20260504070131 66 266 0.9 1.7 0.00 0.00 0.00 55 1009.1
20260504050520 65 251 4.3 6.1 0.00 0.00 0.00 55 1009.7
20260504050017 65 281 0.9 1.7 0.00 0.00 0.00 55 1009.9
20260504045514 65 1 2.6 5.2 0.00 0.00 0.00 56 1010.0
20260504045009 65 17 0.9 1.7 0.00 0.00 0.00 55 1009.9
20260504044507 65 325 0.9 0.9 0.00 0.00 0.00 56 1009.9
20260504044004 66 49 0.9 0.9 0.00 0.00 0.00 55 1009.9
20260504043500 66 321 0.9 1.7 0.00 0.00 0.00 56 1010.2
20260504042958 65 306 1.7 1.7 0.00 0.00 0.00 55 1010.0
20260504042454 66 324 0.9 0.9 0.00 0.00 0.00 55 1010.1